Location: Arena
(42.5007°N, 9.4650°E)
Time: 22:34:56
(UTC+00:00)

SL-08 RB Rocket - Pass Details

Date: 09 April 2020
Orbit: 646 x 685 km, 97.8° (Epoch: 05 June)

Event Time Altitude Azimuth Distance (km) Brightness Sun altitude
Exits shadow 18:56:15 - 152° (SSE) 2,268 6.0 -11.2°
Reaches altitude 10° 18:56:43 10° 151° (SSE) 2,079 5.8 -11.3°
Maximum altitude 19:01:10 57° 73° (ENE) 790 3.8 -12.0°
Drops below altitude 10° 19:05:42 10° 356° (N) 2,119 6.7 -12.8°
Sets 19:07:59 0° 352° (N) 3,043 7.6 -13.2°
